Theta_e
344 344 344 345 346 346 346 347 347 346 346 346 346 347 346 347 348 350 350 350 350 350 351 351 348 345 344 345 347 349 349 350 350 348 345 346 347 346 345 343 342 342 343 342 343 343 342 342 343 345 345 345 344 344 343 344 344 345 345 345 345 345 342 339 336 336 338 338 338 336 336 336 336 335
346 345 344 345 346 347 347 348 347 346 347 347 347 348 347 346 348 349 350 351 351 351 352 352 349 346 345 348 349 349 349 349 348 346 345 346 346 346 345 344 343 343 343 343 343 343 342 342 344 346 346 346 345 344 344 345 345 345 345 345 345 346 345 343 340 337 336 336 337 338 337 336 336 336
346 346 345 344 344 345 346 347 347 347 346 347 347 348 348 348 348 348 349 351 352 351 353 352 349 348 348 348 349 349 348 347 346 345 345 345 345 345 344 344 343 343 343 344 344 343 342 342 344 345 346 347 347 346 346 346 347 347 346 345 345 346 346 345 343 340 338 337 336 337 337 338 337 336
345 345 345 345 344 344 345 346 347 347 347 347 347 347 348 348 349 349 349 351 353 352 352 352 350 350 349 349 348 347 346 345 345 345 344 345 345 345 345 344 345 345 344 343 342 341 341 342 343 343 344 345 346 346 346 347 347 347 348 347 346 345 346 346 345 343 341 340 339 338 337 337 337 338
343 343 343 344 343 343 344 345 347 349 349 348 348 348 347 348 349 348 348 351 354 353 350 349 350 349 349 349 348 346 346 345 344 344 344 345 346 346 346 345 344 343 342 341 340 340 341 341 342 342 343 343 343 343 344 345 346 346 347 347 348 347 346 346 347 347 344 343 342 341 340 338 337 337
342 342 343 343 343 343 343 343 346 351 351 350 350 350 348 348 349 349 348 349 353 355 352 348 349 349 348 349 348 346 346 345 344 345 345 345 345 345 345 344 341 340 339 340 339 340 341 342 342 342 342 343 343 344 345 346 346 347 347 347 348 348 346 346 347 348 347 345 344 344 344 342 341 339
342 342 343 343 342 342 342 342 344 348 349 349 350 349 347 347 350 349 348 348 351 354 354 350 350 350 348 348 347 345 345 345 345 346 345 344 344 343 343 341 340 340 340 340 340 340 341 342 342 343 345 345 346 347 349 349 350 350 350 351 351 350 349 347 347 348 348 347 345 345 346 346 345 343
343 343 342 342 342 342 343 343 343 344 346 347 347 348 347 346 349 350 349 349 350 352 354 352 351 349 347 346 344 343 343 344 344 345 345 344 341 339 339 340 341 341 341 341 341 342 343 344 345 347 348 349 349 350 350 351 352 352 352 353 352 352 350 349 348 348 348 348 346 345 347 348 348 346
344 343 343 342 343 344 343 343 343 343 343 344 346 348 348 347 347 349 349 350 350 351 353 353 351 349 346 343 339 338 339 340 340 340 339 338 337 338 341 342 343 343 343 344 345 346 346 347 349 350 350 350 351 351 351 351 352 352 352 353 352 352 351 350 349 349 349 348 347 346 347 349 349 349
345 344 344 343 343 344 344 343 343 343 342 343 345 346 348 347 347 348 349 349 350 352 352 352 352 350 346 341 336 334 333 333 334 334 335 337 339 341 343 343 344 344 345 346 347 349 350 350 351 352 352 352 351 351 351 351 351 352 352 352 352 351 351 350 349 349 349 349 348 346 347 349 350 351
348 346 345 345 344 344 344 344 344 344 343 344 346 347 347 348 348 349 349 350 351 352 352 352 353 351 346 339 334 332 331 332 335 337 340 343 343 343 343 343 345 345 346 348 348 349 351 352 352 352 351 351 351 350 350 350 350 350 350 350 350 350 350 350 349 349 349 349 348 347 347 349 350 351
349 348 346 345 345 345 345 346 347 346 346 347 348 348 349 349 349 350 351 351 351 352 353 354 353 349 342 336 333 333 333 337 342 343 344 345 344 343 343 343 344 345 346 349 349 348 350 351 351 351 350 350 349 348 348 348 348 348 349 348 348 348 348 347 347 347 347 348 349 348 347 349 350 351
347 348 347 346 346 347 347 347 347 347 348 349 350 350 350 350 350 351 352 352 352 352 353 353 350 345 340 336 333 335 338 341 344 345 344 344 343 343 343 343 344 345 346 347 345 343 346 349 348 348 347 346 346 346 346 347 347 347 348 348 348 347 346 346 346 346 346 348 349 348 348 349 350 352
347 348 348 348 348 349 349 348 348 348 349 349 349 350 350 351 351 351 352 353 353 352 352 352 349 346 343 340 337 338 341 343 343 343 344 344 343 343 343 343 344 345 346 348 344 338 341 345 345 344 344 343 345 345 345 346 346 347 348 348 348 347 346 346 346 345 346 349 350 350 348 349 350 351
348 348 348 348 349 350 350 350 350 350 350 350 350 351 351 351 351 351 351 352 352 353 353 354 352 348 342 338 338 341 344 343 342 342 343 343 343 343 343 344 346 345 346 348 346 339 339 343 343 343 344 345 346 346 345 346 346 347 347 347 346 346 345 345 345 345 345 347 350 350 350 350 350 350
349 349 348 348 349 349 349 350 350 351 351 351 351 351 350 350 351 351 351 350 350 351 352 352 351 349 344 340 341 344 345 344 342 343 343 343 344 343 344 345 347 345 345 347 347 342 340 342 343 343 345 345 346 346 346 346 346 345 345 345 344 344 345 346 346 346 345 345 347 348 349 350 350 351
350 350 349 349 349 348 347 347 348 349 350 351 351 350 350 350 350 349 348 347 346 345 345 344 344 347 346 344 343 344 344 344 344 344 344 344 343 343 345 347 346 345 345 347 347 344 341 341 343 344 344 345 345 345 345 345 345 344 343 342 342 341 342 343 343 344 345 345 346 347 348 349 349 349
350 350 350 350 349 349 348 347 347 347 349 350 351 351 351 350 349 348 347 346 345 345 344 343 342 344 344 343 342 342 342 344 344 344 345 345 344 344 346 346 344 344 346 346 346 344 341 340 342 343 343 344 345 345 345 345 343 342 341 340 339 337 335 334 334 335 338 342 345 346 347 347 347 348
348 349 350 351 351 350 350 349 348 348 348 349 350 351 351 350 348 348 348 348 346 345 345 346 345 343 341 340 340 341 343 344 344 344 345 345 345 344 345 346 345 345 345 345 345 344 340 339 341 343 342 342 343 344 344 343 341 339 338 336 334 331 328 327 327 329 334 340 344 346 347 346 346 346
347 347 349 350 351 351 350 350 349 349 349 348 350 350 349 348 349 349 348 347 346 346 347 348 347 345 342 340 339 341 343 343 343 344 345 345 344 342 343 345 347 347 345 344 344 344 341 339 341 342 340 340 343 343 342 341 338 335 334 331 327 325 324 325 328 332 335 339 342 343 344 343 342 343
346 346 347 348 349 349 349 349 349 349 348 348 349 349 348 348 349 349 348 347 346 345 346 347 348 347 345 344 344 343 343 342 343 344 345 344 342 340 341 344 347 347 345 344 344 344 342 339 339 341 341 340 342 342 341 339 336 333 331 328 325 323 325 328 333 336 337 338 339 339 338 338 338 339
346 346 346 346 347 347 347 348 348 349 349 348 349 348 348 348 348 348 348 347 346 346 346 346 347 347 345 345 345 345 343 342 344 344 344 343 341 340 342 345 347 347 345 344 344 343 342 337 336 339 341 340 340 340 340 338 335 332 330 327 325 324 326 329 332 335 337 338 337 336 336 336 337 338
347 346 346 346 346 346 346 346 347 348 348 347 347 347 348 347 347 347 347 346 346 346 346 347 348 348 347 346 346 345 343 343 344 344 343 342 341 342 344 345 346 347 345 344 342 341 338 335 332 334 337 340 339 339 338 335 332 330 329 327 325 324 325 328 330 332 334 336 336 335 335 336 337 338
347 347 347 347 347 346 346 346 347 347 348 347 347 347 346 347 347 347 346 345 345 344 345 346 348 349 350 349 348 345 344 343 343 343 343 341 341 343 345 345 345 345 343 341 339 335 331 331 332 331 333 336 338 337 335 333 330 329 329 327 324 322 323 325 328 330 332 333 334 335 335 336 336 336
348 348 348 348 347 346 345 344 345 347 348 348 348 347 346 347 347 347 346 345 344 344 345 346 348 350 351 350 347 346 345 344 344 343 341 340 341 343 344 344 343 342 340 336 333 329 325 327 330 331 331 332 334 334 332 330 329 328 327 326 323 320 320 322 325 327 328 329 330 331 332 332 332 332
348 348 348 348 348 348 347 345 346 346 346 348 349 348 347 347 347 347 346 346 347 348 347 348 349 349 348 348 347 345 345 344 342 341 340 340 341 342 342 341 340 337 334 330 326 323 323 324 326 328 330 331 332 331 330 329 328 327 326 324 321 319 318 320 322 323 324 325 325 326 326 326 326 325
347 347 347 347 347 348 348 347 346 345 346 348 350 349 348 347 347 347 347 346 348 349 348 347 347 346 345 346 346 344 343 342 340 339 339 340 341 341 339 338 335 331 328 327 326 325 326 325 325 325 326 328 329 330 329 328 327 324 323 321 319 317 317 318 319 320 321 321 321 321 321 320 320 319
344 344 344 345 345 346 346 347 346 345 346 348 349 350 349 348 347 348 348 347 347 348 347 346 345 344 344 344 343 341 341 340 339 339 339 339 340 339 337 334 332 329 328 329 329 329 327 325 324 322 322 323 326 328 328 326 323 321 320 318 316 315 316 316 317 318 318 318 318 317 316 315 314 313
341 342 342 343 343 344 344 345 345 345 345 347 348 349 349 348 348 347 347 347 347 348 347 344 342 343 342 340 339 340 340 339 339 339 339 339 338 336 335 333 331 330 329 330 330 328 324 320 319 317 317 318 320 322 322 321 318 317 316 315 315 314 314 314 315 315 315 315 314 313 312 311 310 309
339 339 340 340 341 341 341 342 343 343 344 344 345 346 346 347 347 346 345 346 347 347 345 342 342 342 340 338 338 339 340 340 340 339 339 338 337 335 334 332 330 329 330 330 329 326 322 319 316 315 314 314 315 316 316 315 314 313 313 313 314 314 313 313 312 312 312 312 311 310 310 309 308 308
337 337 338 338 338 338 338 339 340 341 341 341 341 342 342 342 342 343 343 344 345 345 344 342 341 339 337 336 338 339 339 339 339 339 338 337 335 334 333 330 329 329 329 328 327 325 323 321 318 315 314 314 314 313 312 311 311 311 311 311 312 313 312 311 311 311 310 309 309 308 308 307 307 307
328 331 333 334 334 333 333 334 336 337 337 337 337 337 337 336 336 339 341 341 342 342 339 336 335 335 335 337 338 338 338 338 337 337 336 334 333 331 329 328 328 328 327 326 325 323 322 321 319 316 314 314 312 311 310 309 309 309 310 310 310 310 310 309 309 309 308 308 307 307 306 306 306 306
314 318 321 323 324 325 326 328 330 331 331 332 332 332 332 331 331 333 335 335 334 333 331 328 330 334 337 337 337 337 336 335 334 333 332 331 330 328 328 327 326 325 324 324 323 322 320 319 317 315 313 312 311 309 309 308 308 308 309 309 308 309 309 308 308 308 307 306 306 306 306 306 306 306
307 310 315 319 322 325 327 328 328 328 328 330 332 332 331 329 327 327 328 327 326 327 328 329 331 335 337 336 335 334 332 331 330 330 329 329 328 327 326 325 325 324 323 322 321 319 318 317 316 314 312 311 310 308 308 308 308 308 308 308 308 308 307 307 307 307 306 306 306 306 307 307 306 305
312 317 322 325 327 329 330 330 330 330 331 332 333 334 333 332 329 328 328 327 327 328 332 333 333 334 334 333 331 330 329 328 329 329 328 327 327 325 324 323 323 322 320 319 317 316 316 316 315 312 310 309 308 307 308 308 307 307 308 307 307 307 306 306 306 306 306 306 305 305 308 309 309 307
322 326 329 330 330 330 330 330 330 331 332 332 332 333 334 333 332 331 331 331 331 331 332 332 331 330 329 329 328 328 328 328 328 327 326 326 325 324 322 321 320 319 317 316 315 314 314 315 313 310 309 309 310 310 311 309 307 306 307 307 307 306 306 306 305 305 305 305 305 305 307 310 310 308
327 329 330 330 329 329 329 329 328 329 329 329 330 330 331 331 331 330 330 329 329 329 329 329 328 328 327 328 327 327 326 326 325 324 323 323 322 321 319 318 318 317 316 315 314 313 313 313 311 308 307 309 311 313 313 310 306 305 306 306 306 306 305 305 305 306 306 305 305 305 305 307 309 309
327 328 329 328 327 327 327 326 326 327 326 326 326 326 326 326 326 326 325 325 326 326 326 326 326 326 326 325 324 324 324 323 322 322 321 320 319 318 317 317 316 315 314 314 313 313 312 310 309 307 306 307 309 312 312 310 309 308 307 304 305 305 304 304 305 307 307 306 306 305 304 305 308 308
325 325 326 325 325 325 325 325 325 325 324 324 324 324 324 324 324 324 324 324 324 324 324 324 324 323 323 322 322 321 321 321 320 319 318 318 317 316 315 314 314 313 312 312 311 310 309 308 307 306 305 305 306 307 307 306 307 308 307 304 303 304 304 304 305 306 308 308 308 307 307 307 307 307
322 322 323 323 323 323 323 323 323 323 323 322 323 323 323 323 322 322 322 322 321 321 321 321 321 320 320 319 319 318 318 317 316 315 315 314 314 313 312 312 311 311 310 308 307 307 306 305 305 305 304 304 304 303 303 303 304 305 306 305 305 304 303 303 305 306 307 308 307 307 308 308 308 308
321 321 321 321 321 321 321 321 320 320 320 320 320 320 320 320 320 319 319 319 318 317 317 317 317 316 316 315 315 314 314 313 313 312 312 312 311 311 311 311 310 309 307 306 305 305 304 304 304 304 303 303 302 303 305 306 307 308 308 307 307 306 304 303 303 304 304 305 305 306 307 308 308 308
320 320 320 319 319 319 319 319 319 318 318 317 317 317 317 317 317 316 316 315 315 314 314 314 313 313 313 313 312 312 312 311 311 311 311 310 310 310 310 310 309 308 306 305 304 303 303 303 302 302 302 302 302 305 307 309 309 308 308 307 307 306 305 304 303 302 302 302 303 305 307 307 307 308
317 317 318 317 317 317 317 316 316 316 315 315 315 315 314 314 313 312 312 311 311 312 312 312 312 311 311 311 311 311 311 310 310 310 310 310 309 309 308 308 307 306 304 303 302 302 301 301 301 302 303 303 304 306 307 308 307 307 307 307 306 306 306 305 304 303 303 302 302 303 303 304 305 306
314 314 314 314 314 313 313 313 313 313 312 313 313 312 311 311 310 309 309 309 309 309 310 310 310 310 310 310 310 309 309 309 309 309 308 308 307 307 306 305 304 303 302 302 302 302 302 303 303 304 304 305 305 306 306 306 306 306 306 306 306 306 306 305 305 304 304 304 303 303 302 301 301 302
311 311 311 311 310 310 310 309 309 309 309 309 308 308 308 307 307 307 307 307 307 307 308 308 308 308 308 308 308 307 307 307 306 306 306 305 305 304 303 303 302 302 302 302 302 302 303 304 304 304 304 305 305 305 305 305 305 305 305 305 305 305 305 305 305 305 305 305 304 303 302 300 300 300
Wind_Speed
10 10 11 11 10 11 10 9 9 9 8 7 7 6 5 4 3 3 4 4 3 4 5 5 5 5 5 4 3 3 3 3 3 4 4 2 1 3 5 6 6 6 8 10 10 10 8 6 5 4 5 5 5 5 4 4 4 4 4 5 5 5 4 3 2 1 2 2 2 2 1 1 1 0
10 10 11 11 11 11 11 10 10 10 9 8 7 7 5 5 4 4 5 4 3 4 4 4 5 5 4 4 3 3 3 3 3 4 4 2 2 4 5 6 6 6 8 10 12 12 10 7 5 5 5 5 5 5 4 4 4 4 3 4 4 4 4 3 3 2 1 2 2 3 3 3 3 2
10 10 11 11 12 12 12 12 12 11 11 10 9 8 7 6 6 5 5 5 4 3 3 3 4 4 4 3 3 3 4 3 3 3 4 4 4 5 5 6 7 8 9 11 12 13 12 10 8 7 7 7 6 6 6 5 5 5 5 4 4 4 4 4 4 3 3 2 2 2 3 3 4 4
11 11 11 11 12 12 12 12 12 12 12 11 11 11 10 8 8 7 6 5 4 4 3 2 3 3 3 2 2 3 3 2 2 3 4 4 4 5 5 6 7 9 11 13 14 14 13 11 9 8 8 8 9 9 8 8 8 7 7 6 5 5 4 5 5 5 4 4 3 3 3 4 4 5
12 12 12 12 12 12 13 13 12 11 11 11 11 12 12 11 10 8 7 5 4 4 4 3 2 2 2 2 3 2 2 1 2 3 4 4 4 5 6 8 10 11 13 13 14 14 13 12 10 9 9 9 10 10 10 10 10 9 8 8 7 6 5 5 6 6 6 5 5 4 3 4 4 5
13 13 13 13 13 13 14 13 12 11 10 10 10 11 12 11 11 9 7 6 5 4 4 4 4 3 3 3 3 2 2 1 2 3 4 5 5 6 8 11 13 13 13 13 13 13 13 12 11 10 9 8 8 7 7 7 7 8 7 7 6 6 6 6 6 7 7 7 6 5 5 5 5 5
13 14 14 14 14 14 15 14 13 13 12 11 10 10 11 11 10 10 8 7 6 4 4 4 4 4 4 4 4 4 3 3 3 4 6 7 8 9 10 12 13 12 12 12 13 13 13 12 11 10 9 8 7 6 6 5 5 6 6 5 4 4 5 6 7 7 7 8 7 6 6 5 6 6
14 14 15 15 14 14 15 15 15 14 14 13 12 11 11 11 10 10 9 8 7 6 5 5 5 5 6 5 5 5 5 5 6 7 8 9 10 10 10 11 11 12 12 12 12 12 11 11 10 10 9 8 8 7 7 7 6 6 6 5 5 5 5 6 7 8 8 8 8 7 6 6 6 6
14 15 15 16 15 15 15 15 15 15 15 14 14 13 12 12 12 11 10 9 8 7 7 6 6 6 5 5 5 5 5 7 8 9 9 10 9 9 8 9 10 11 10 10 10 10 10 9 9 8 8 8 8 8 8 8 7 7 6 6 6 6 7 8 8 8 8 8 9 9 8 7 6 6
14 15 15 16 16 16 16 16 15 15 15 15 15 14 13 13 13 12 12 11 9 8 8 8 7 7 6 6 6 6 6 6 7 7 8 8 7 6 7 8 9 8 8 8 8 8 9 8 8 8 8 8 9 9 9 9 9 9 8 7 7 7 8 9 9 9 9 8 9 11 10 8 7 6
15 15 15 16 16 17 17 16 16 16 15 15 15 15 14 14 14 13 13 12 10 9 9 8 8 8 7 7 7 7 7 6 6 6 6 6 6 6 7 8 8 7 6 7 7 8 8 9 9 9 10 10 10 10 10 10 10 10 10 9 9 9 8 8 8 9 9 8 8 11 12 10 9 8
15 16 16 16 16 17 17 16 16 16 15 15 15 15 15 15 15 13 13 12 11 10 9 8 9 9 8 8 8 7 7 6 6 6 5 5 5 7 8 9 8 6 5 4 6 8 8 8 10 10 10 10 10 9 9 9 9 9 9 9 9 9 9 8 7 7 7 7 7 10 13 12 11 9
14 15 16 16 16 16 17 17 17 16 16 16 16 16 15 15 15 14 14 13 13 12 10 9 9 10 9 8 8 7 7 6 6 7 6 6 6 8 10 10 9 7 5 4 4 6 6 7 8 9 9 9 8 8 8 8 8 8 8 8 9 9 9 8 7 6 4 4 6 9 13 13 12 11
14 15 16 16 16 16 16 17 18 18 17 18 17 17 16 15 15 15 15 15 14 13 11 10 10 10 9 8 8 7 7 7 7 7 7 7 8 8 9 10 9 6 5 4 4 6 5 5 8 8 8 8 7 8 8 8 9 10 10 10 10 10 9 8 7 6 5 3 4 7 12 13 13 13
14 15 15 16 17 17 17 17 18 18 18 18 18 17 16 16 16 15 16 15 14 13 11 9 9 9 9 9 8 8 8 7 8 8 8 9 9 10 10 9 8 6 4 3 4 5 4 5 8 8 7 7 8 8 9 9 10 11 12 12 11 11 10 9 8 7 6 5 4 5 9 11 13 14
15 15 15 16 17 18 18 18 19 19 19 18 19 18 18 18 18 17 15 13 12 12 12 11 10 10 10 9 8 8 8 8 9 9 9 10 10 11 11 9 6 5 4 3 3 4 4 4 7 8 7 7 8 9 10 10 11 11 12 12 12 11 10 10 9 9 8 7 6 5 5 7 8 10
16 16 16 17 18 18 18 18 19 20 20 19 19 18 18 18 18 17 15 14 15 15 15 15 13 11 10 9 8 7 7 9 9 10 10 11 12 12 11 9 7 5 4 3 3 3 3 3 5 7 7 7 8 9 10 11 11 12 12 12 12 11 11 10 10 10 9 9 7 7 6 6 6 7
17 17 17 18 18 18 18 18 18 19 20 20 19 19 18 18 18 16 15 15 17 16 16 16 14 12 11 11 10 9 9 9 10 10 11 12 13 12 11 10 9 6 4 3 2 3 3 2 3 7 8 8 8 10 11 11 12 12 12 12 11 11 10 10 10 9 9 8 8 7 7 7 7 7
19 20 19 19 19 18 18 18 18 18 20 20 20 19 18 18 17 17 17 17 17 17 17 16 14 12 12 12 12 12 12 11 11 12 13 13 13 12 10 10 9 6 4 4 2 3 3 3 3 6 8 9 9 10 11 11 11 11 11 12 11 11 10 9 8 8 7 7 6 6 6 6 6 6
21 21 21 21 21 20 20 19 18 19 19 19 19 19 19 17 17 17 18 19 19 18 17 16 14 13 12 12 13 14 14 13 13 13 13 12 12 11 9 8 7 5 5 5 4 3 3 3 4 6 8 8 9 10 11 11 11 10 10 10 10 10 9 8 7 6 6 6 6 5 5 5 5 5
22 22 22 23 23 22 21 21 20 20 20 20 20 20 19 18 17 17 18 19 19 18 17 16 15 15 14 14 15 16 16 14 13 13 12 10 10 11 10 8 7 6 6 7 6 4 4 5 5 7 9 9 9 10 10 10 10 10 10 9 9 8 7 6 5 5 5 5 5 6 5 5 5 6
23 23 23 24 24 24 23 22 21 21 22 21 21 21 19 18 18 17 17 18 18 18 17 17 17 17 16 16 16 17 16 14 12 12 10 9 9 10 9 9 9 8 8 8 6 6 7 6 5 7 9 9 10 11 10 9 9 9 9 9 8 6 5 5 5 6 6 6 7 7 7 7 7 8
25 26 26 25 25 25 25 23 22 24 25 23 20 21 21 20 18 17 16 17 18 18 18 18 18 18 17 18 18 17 16 13 12 11 10 8 8 8 8 8 8 8 8 8 7 7 8 7 5 6 8 9 11 12 11 9 8 9 9 9 8 7 6 5 6 6 7 8 9 10 10 10 10 11
27 27 28 27 27 27 27 26 25 25 25 24 22 23 24 22 19 18 18 18 18 19 19 19 19 19 18 18 18 16 14 13 12 11 9 7 7 7 8 8 8 8 8 9 9 9 8 7 6 6 7 8 10 12 11 10 9 10 10 10 9 8 8 7 7 8 9 10 10 11 11 12 12 13
27 28 29 29 29 29 29 30 28 26 24 24 24 25 26 24 22 20 19 18 18 19 19 19 20 20 20 19 17 14 12 12 12 10 9 7 7 8 8 8 8 9 9 10 9 8 7 6 5 5 6 6 8 11 12 12 12 11 11 11 10 10 10 10 10 11 11 11 12 12 13 13 14 15
28 29 30 30 31 31 31 32 31 27 24 24 25 26 26 26 25 22 20 19 18 19 19 20 21 21 18 16 15 13 11 12 11 9 8 7 7 8 8 8 8 9 8 8 6 5 5 5 5 6 7 7 8 10 12 13 14 14 13 12 11 10 11 11 12 12 13 13 14 14 14 15 15 16
25 26 27 28 29 29 31 32 32 29 27 27 27 27 27 27 25 23 21 21 19 19 20 20 21 20 17 14 13 13 12 12 11 9 8 7 7 8 8 7 7 7 6 5 5 6 7 7 8 8 9 9 10 10 11 13 15 15 14 13 12 11 11 11 12 13 14 14 15 16 16 16 16 17
18 19 20 21 21 23 24 27 29 30 30 29 28 27 27 27 26 24 23 22 20 20 21 22 21 20 17 15 15 14 13 13 11 9 8 8 8 8 8 7 6 5 4 5 7 8 9 9 10 10 10 11 11 11 11 14 17 16 15 14 13 12 11 11 12 13 14 14 15 16 17 17 18 18
13 13 14 14 15 17 18 21 23 25 25 26 28 29 28 27 27 24 22 20 19 19 21 21 19 18 17 16 16 15 14 13 12 9 9 9 8 8 7 7 6 5 6 7 9 10 10 10 10 11 11 11 11 12 12 14 16 16 15 14 14 13 12 12 13 14 14 15 15 16 17 18 18 18
8 8 8 8 10 11 13 15 18 20 21 22 24 27 27 27 26 23 20 18 18 19 20 20 20 20 20 18 17 15 14 13 12 10 9 9 8 7 7 7 7 7 8 10 11 11 12 12 12 12 12 11 11 12 12 13 14 15 15 14 14 14 14 13 14 14 15 16 17 17 18 18 18 17
7 8 8 8 8 8 8 9 11 13 16 17 20 22 23 22 22 21 19 18 19 19 20 20 20 20 20 19 17 16 15 14 13 11 10 9 8 7 7 7 8 9 10 12 12 13 14 15 14 13 12 12 11 11 11 12 13 14 14 14 15 15 16 16 16 16 16 16 17 17 17 17 17 17
7 6 7 7 8 8 8 8 8 8 10 11 14 15 15 13 14 16 16 16 16 16 15 14 13 14 16 18 18 17 16 15 13 12 11 10 8 8 8 8 10 11 12 14 15 15 16 16 16 14 12 12 12 11 11 12 13 14 14 14 15 16 17 18 18 18 17 15 15 16 15 15 16 16
6 6 6 6 6 6 7 9 9 9 8 7 6 6 5 3 2 6 7 7 7 7 6 8 11 13 17 18 17 17 16 16 14 13 12 10 8 8 8 9 10 12 13 15 17 18 18 17 15 13 12 12 12 12 12 13 14 14 14 15 15 16 18 19 19 19 18 15 13 14 14 14 14 14
6 6 6 6 6 5 6 8 9 9 10 9 8 6 6 6 7 6 5 5 4 4 6 9 12 15 17 18 18 18 17 15 13 12 10 9 8 8 8 10 12 13 15 17 18 18 19 18 15 13 12 12 12 12 12 13 14 15 15 15 15 16 17 18 19 19 17 15 13 12 12 13 14 13
7 8 8 8 8 8 10 11 11 11 11 10 9 8 7 7 8 8 8 7 6 6 7 10 14 17 18 18 18 17 15 12 11 9 8 7 7 8 10 12 14 15 16 18 18 18 18 18 16 14 12 11 12 13 13 13 13 14 15 15 15 16 16 17 17 17 16 15 13 10 8 9 11 12
10 10 10 11 11 12 12 12 11 11 9 9 8 8 7 7 7 6 6 6 5 6 9 12 14 15 15 14 12 11 9 8 7 6 6 7 9 11 13 14 15 16 17 18 19 19 18 17 15 13 11 10 10 11 12 14 13 13 13 15 16 16 16 16 16 15 14 15 14 10 7 6 8 11
12 12 12 12 13 12 12 12 11 10 9 9 8 8 8 8 7 7 7 6 5 5 7 9 9 8 8 8 7 6 6 5 6 7 8 10 11 13 15 16 17 18 18 19 19 19 17 16 14 12 9 8 7 7 11 16 17 15 14 15 15 17 17 16 14 13 14 14 13 11 9 8 7 9
12 12 12 13 13 12 11 11 11 10 11 11 10 9 9 9 8 8 8 6 5 4 4 4 4 4 4 4 4 5 6 7 8 10 11 13 14 15 16 17 18 19 20 20 19 18 16 14 14 12 10 9 7 6 8 12 13 14 17 16 14 15 17 15 12 11 12 13 12 11 11 10 7 9
12 11 11 12 12 11 10 9 8 8 9 8 7 7 7 6 5 5 4 3 2 2 2 2 3 4 4 5 6 8 9 10 12 13 14 15 16 17 18 18 19 19 18 18 17 16 14 13 13 12 12 11 11 11 13 13 12 13 18 19 15 14 15 14 12 10 9 8 8 8 8 8 8 9
10 9 9 8 8 7 6 6 5 5 4 3 3 3 3 2 3 3 2 2 3 3 4 5 6 7 8 9 10 11 12 13 13 14 15 16 17 17 17 16 16 16 15 14 14 14 14 13 13 13 12 12 13 14 15 15 14 13 15 17 16 14 12 12 11 9 8 8 8 8 7 7 7 9
7 6 5 4 4 3 3 3 3 3 3 3 4 5 5 5 5 5 6 6 6 7 7 8 9 9 10 10 11 12 12 13 13 14 14 15 16 16 15 14 14 14 13 13 13 14 15 14 13 12 12 12 12 12 11 10 9 8 8 11 14 14 13 12 12 12 12 12 10 8 8 7 7 9
4 4 3 2 2 2 2 3 3 3 4 4 4 5 6 7 8 8 8 8 9 9 10 10 11 11 11 12 12 12 12 13 14 14 15 15 15 16 16 14 13 13 13 12 13 14 15 15 14 13 12 10 8 7 7 7 7 8 7 7 10 13 14 14 13 13 14 14 11 9 8 8 8 9
2 2 3 3 4 4 5 6 6 7 7 7 7 7 8 9 10 10 10 10 10 11 11 11 12 12 12 13 13 13 13 14 15 15 15 15 15 14 13 13 13 13 13 13 13 14 15 14 13 10 8 7 6 6 7 7 7 8 8 7 8 9 11 13 14 14 14 14 13 12 12 11 11 11
3 3 4 4 5 6 6 7 8 8 9 9 9 10 10 11 11 11 10 10 10 10 11 11 12 12 13 13 13 14 14 15 15 15 15 15 14 13 12 13 13 13 12 12 12 12 10 10 9 6 5 5 6 6 7 8 8 8 8 8 8 9 9 10 11 12 14 15 16 15 14 14 14 14
4 4 4 4 5 6 7 7 8 8 9 9 10 10 10 10 10 10 10 10 10 11 11 12 12 13 14 14 14 14 15 14 14 14 13 12 12 12 12 12 11 11 10 10 9 8 6 6 6 5 5 6 6 6 7 8 8 9 9 9 9 9 9 9 9 10 10 12 16 17 16 14 15 16
Wind_Direction
254 254 253 254 256 259 261 263 265 268 271 271 276 287 298 312 319 322 333 342 342 346 356 351 334 327 329 335 338 343 350 358 12 15 13 35 51 18 8 8 17 30 28 22 16 10 7 4 356 347 337 329 328 330 339 352 1 14 23 21 16 21 33 41 32 353 325 319 320 323 322 320 315 299
256 257 257 256 257 260 261 262 263 265 266 264 268 276 282 290 294 306 322 327 327 334 346 351 341 339 345 355 359 355 358 13 30 30 24 22 14 359 353 351 355 4 8 9 8 6 4 0 350 340 332 328 324 316 309 315 326 333 344 353 357 358 7 24 31 22 348 300 290 289 293 295 294 288
255 257 258 259 259 261 262 263 265 267 268 267 268 269 271 280 287 298 311 310 310 325 331 333 341 354 3 15 23 5 3 23 39 31 21 9 357 348 339 336 339 343 346 348 350 351 351 349 340 328 320 318 319 314 303 300 303 307 310 312 319 332 342 354 2 5 2 336 292 272 268 271 276 279
255 255 256 258 261 263 263 265 268 271 272 271 270 266 265 271 278 287 296 296 299 308 308 316 338 354 358 7 17 11 9 19 14 4 4 1 356 349 342 339 338 335 335 337 338 339 339 338 333 323 313 306 304 302 298 295 293 295 298 295 293 296 310 324 329 329 334 334 320 293 272 263 260 263
256 255 254 255 259 262 263 264 266 270 273 273 271 266 263 264 267 273 284 285 288 302 304 299 299 308 325 330 340 6 20 1 338 341 346 347 345 345 341 336 333 332 331 331 332 332 332 331 329 322 314 306 302 301 299 296 293 293 292 288 283 277 276 295 307 304 302 309 313 305 291 277 265 259
255 255 255 255 256 259 261 262 261 262 267 270 267 263 261 260 260 262 270 276 279 290 295 293 286 278 285 305 315 330 337 315 313 315 318 323 325 328 329 327 327 329 329 329 329 329 331 332 330 327 322 318 317 319 318 312 304 302 301 298 290 277 267 277 297 299 284 282 294 299 294 289 279 268
256 256 257 258 259 260 261 262 261 259 260 264 263 259 257 255 254 256 261 270 277 275 272 277 276 268 267 280 293 295 295 299 303 304 309 317 320 321 322 322 324 327 328 328 329 330 333 335 335 337 339 340 343 347 351 349 342 336 333 329 318 298 283 282 296 300 283 265 270 284 290 289 287 281
254 255 258 261 262 263 263 262 262 260 260 262 262 259 258 254 251 253 257 264 274 275 268 266 267 268 270 277 285 287 289 293 296 300 304 309 314 319 322 324 324 328 330 330 330 331 334 336 339 342 344 345 348 351 353 353 351 348 344 335 321 306 297 294 295 299 290 265 254 263 276 283 291 291
251 254 258 261 263 264 265 263 261 261 258 258 259 257 257 257 254 253 253 257 266 270 268 270 274 274 275 282 289 291 289 289 290 294 298 303 310 318 325 329 330 332 334 333 333 332 332 333 334 334 334 334 335 336 337 338 337 335 329 319 309 300 295 293 291 292 292 274 251 247 258 274 288 298
252 254 257 260 261 261 263 262 260 260 259 258 258 257 255 257 257 255 253 254 259 262 265 272 278 277 279 291 299 295 290 288 292 298 301 304 310 317 327 336 338 335 333 332 330 326 324 323 321 317 316 317 318 319 319 319 319 318 316 311 307 301 295 290 286 282 283 276 251 237 240 258 276 290
256 258 259 260 260 260 261 262 263 262 261 259 258 258 258 258 258 256 254 254 253 254 262 270 273 275 281 294 299 295 293 295 299 305 305 304 309 317 332 344 345 339 340 338 328 318 314 312 309 307 308 309 311 312 310 309 310 309 309 309 308 307 303 298 292 283 276 272 255 237 235 247 263 276
259 260 259 258 259 261 261 262 264 263 260 258 258 259 259 259 258 253 250 250 248 249 254 260 264 269 279 289 292 291 296 301 301 300 298 302 317 327 336 344 345 342 349 354 334 322 318 315 311 310 312 313 312 312 311 310 308 306 305 306 309 311 313 311 309 301 281 267 254 237 233 242 256 268
259 260 259 258 259 262 263 263 264 262 260 259 259 259 259 259 258 253 248 247 248 248 249 253 260 269 277 283 284 285 291 293 292 294 299 309 324 332 335 339 341 339 335 338 334 326 321 319 317 316 318 319 319 320 318 313 313 316 317 320 321 321 323 323 322 321 300 267 244 231 230 238 251 261
262 262 261 260 261 263 265 265 263 263 263 262 260 260 260 259 257 255 252 250 249 247 246 252 263 271 275 274 275 280 285 289 290 294 302 310 317 323 325 326 330 330 324 325 329 331 334 327 320 320 322 325 327 327 325 327 332 335 334 333 333 332 332 332 328 327 320 296 256 231 229 235 246 257
266 267 265 265 264 264 265 265 263 263 264 265 263 260 259 259 258 256 254 253 252 250 249 256 269 279 277 270 271 280 286 291 293 293 296 303 309 314 315 314 315 318 321 326 324 332 349 338 320 318 321 326 331 332 335 340 341 337 334 334 334 334 334 334 333 334 331 318 292 254 240 242 250 260
271 271 269 267 267 266 266 265 264 263 263 265 266 264 263 261 257 254 254 255 257 256 255 261 277 290 290 279 277 285 293 297 296 293 295 299 303 309 311 306 305 311 316 323 319 329 358 349 322 317 317 323 329 333 335 337 335 333 333 334 335 336 335 333 333 335 337 333 323 304 279 267 266 271
272 272 270 267 266 267 268 266 266 265 264 264 265 265 265 262 258 258 259 258 258 257 259 266 273 280 279 269 266 275 290 299 297 294 298 299 300 305 306 299 301 307 307 305 304 317 348 354 319 310 312 317 321 323 324 327 329 331 333 335 337 340 340 338 336 336 338 339 336 330 322 313 305 301
272 272 272 270 268 269 270 270 269 268 266 264 263 263 264 262 261 263 262 256 254 255 261 269 273 276 275 271 271 276 282 288 290 293 298 299 299 301 296 289 293 294 284 290 298 297 317 340 309 303 311 314 312 312 314 318 323 326 331 336 338 340 342 340 337 335 335 334 331 327 323 318 314 311
272 272 271 271 270 270 271 272 272 270 267 264 264 266 266 264 263 261 257 252 249 249 255 260 263 267 270 272 275 277 278 280 286 292 295 295 294 293 287 287 291 285 273 282 288 273 286 304 286 286 300 305 303 304 308 311 317 324 331 336 337 337 337 334 329 326 321 318 317 315 312 309 308 305
272 272 272 272 272 272 272 271 269 266 264 262 262 265 265 263 261 259 257 254 251 250 253 256 256 255 255 257 262 267 272 278 286 290 292 292 289 283 277 277 274 264 265 278 283 270 273 292 283 274 284 293 291 294 302 308 317 328 335 339 339 336 332 327 320 313 306 301 297 295 300 307 306 302
270 271 271 272 272 273 272 270 267 265 262 259 259 261 261 260 259 257 256 256 254 251 253 255 255 255 253 253 254 258 265 274 282 286 287 285 281 274 268 259 245 243 263 279 285 280 278 295 292 276 279 283 278 280 291 301 313 326 335 340 340 335 329 323 313 306 301 296 294 295 299 303 302 303
269 269 269 269 270 271 271 270 269 265 260 257 258 261 262 260 258 256 253 252 251 250 250 250 250 251 253 254 254 257 263 269 274 278 279 276 272 265 255 243 235 244 263 274 279 281 287 298 292 271 276 282 278 276 279 286 302 318 327 332 333 327 318 309 297 290 283 280 284 290 292 291 292 297
268 269 269 268 268 267 267 269 269 266 263 262 262 265 265 261 257 257 256 253 250 249 250 249 249 249 248 249 252 256 261 264 266 269 270 266 260 252 241 235 233 239 255 269 282 288 291 293 276 254 260 270 275 277 274 274 288 303 311 317 317 306 296 288 282 280 276 275 280 284 284 283 284 287
269 270 270 268 266 264 264 266 267 266 266 266 263 261 261 260 257 256 256 253 250 248 247 247 248 249 247 246 248 250 254 257 261 265 265 255 242 236 234 236 237 243 258 277 290 291 288 283 267 251 246 249 261 270 271 271 281 290 298 303 299 290 283 277 271 270 270 273 276 279 280 280 280 283
272 272 271 269 267 265 265 265 264 262 263 264 262 260 260 260 260 258 255 253 250 247 244 243 244 245 244 243 245 247 252 258 262 264 263 251 236 231 234 240 250 261 273 284 291 289 286 283 272 263 259 249 251 263 271 276 280 283 287 289 283 277 274 271 269 268 268 270 271 272 274 277 279 281
275 274 273 273 271 268 265 263 261 261 262 261 258 259 260 259 257 253 248 247 245 243 241 239 242 244 242 241 244 248 253 258 258 258 255 247 238 238 240 247 261 274 284 291 298 308 309 303 290 279 273 263 257 264 273 277 280 283 285 281 274 268 266 266 267 269 270 272 274 274 274 276 278 281
280 279 277 275 273 270 267 262 258 259 261 259 255 255 258 261 259 251 245 243 240 240 241 239 243 248 248 243 244 246 248 250 249 247 247 243 242 248 256 263 271 278 288 302 321 331 325 313 303 291 278 271 269 270 270 272 279 285 285 282 277 270 266 265 266 269 273 277 280 282 283 284 286 288
288 286 284 282 279 275 271 263 256 254 255 256 257 257 259 262 261 255 250 246 237 237 242 245 245 245 240 234 236 238 239 240 239 238 240 244 250 260 270 278 285 293 310 327 333 331 322 311 303 294 283 275 271 268 266 271 278 281 280 279 279 275 272 273 274 276 278 279 282 286 289 291 294 295
294 294 294 293 288 283 276 267 263 262 260 259 260 257 254 255 254 251 250 250 244 243 248 249 243 234 228 226 228 228 227 229 230 232 237 245 254 264 276 289 300 310 322 328 330 328 322 313 305 297 290 281 273 270 270 273 277 279 277 277 279 279 279 278 277 279 281 281 283 286 287 289 292 293
309 309 309 306 298 295 288 277 273 273 271 267 264 258 250 246 244 242 242 247 250 254 258 256 247 238 231 224 220 221 223 223 224 228 236 244 253 266 281 295 302 309 317 322 325 326 324 319 312 303 295 288 281 277 274 272 274 276 278 280 282 283 283 281 279 280 281 283 285 287 288 289 290 289
330 330 331 330 329 329 324 309 293 283 278 275 273 267 257 247 241 240 240 245 250 254 258 257 252 245 234 220 214 219 221 221 222 227 234 241 252 266 281 292 298 307 314 318 321 323 322 319 314 306 297 291 285 280 277 274 272 273 277 280 281 283 284 284 284 284 283 285 286 285 286 288 288 289
333 333 335 337 341 347 351 352 350 334 315 301 288 282 277 264 249 243 245 249 252 255 253 244 234 229 220 209 208 212 215 216 221 226 230 236 247 263 277 289 300 310 315 318 320 321 319 316 312 305 296 288 282 279 276 273 271 272 275 277 279 280 283 285 286 286 286 286 283 282 283 282 282 284
345 346 347 353 1 6 16 25 28 24 13 360 342 330 335 332 240 223 229 239 246 245 228 195 191 206 211 206 205 211 214 216 219 223 226 234 247 266 280 291 301 310 314 317 318 317 316 314 309 303 295 286 282 280 275 272 272 274 276 278 279 280 282 285 285 286 287 287 283 283 285 283 279 279
14 19 21 28 35 42 52 53 51 51 54 55 49 42 50 71 86 99 106 104 114 142 164 173 186 201 208 207 206 208 209 211 215 221 230 239 253 273 288 297 305 310 311 313 314 315 314 311 307 302 295 286 282 280 275 273 275 278 279 279 279 279 280 282 283 284 287 287 284 283 285 285 284 282
47 51 52 53 58 64 67 67 65 63 64 66 64 64 75 85 84 88 99 107 120 147 173 187 194 199 202 203 204 205 206 212 220 228 239 255 274 292 300 304 307 308 309 310 311 311 310 308 307 307 303 296 293 288 281 277 277 280 283 282 280 280 280 281 283 286 290 290 290 287 281 278 284 286
62 60 57 59 63 66 68 70 72 71 69 68 67 67 76 81 79 88 108 121 143 171 185 191 194 196 199 204 208 211 216 226 237 252 274 287 295 300 302 303 304 305 306 307 306 306 305 304 304 306 305 300 297 289 283 283 285 283 281 282 285 287 285 285 288 291 292 292 295 294 277 257 268 281
67 62 61 64 69 70 72 73 74 75 76 76 74 75 83 89 94 104 114 120 139 171 187 193 194 198 206 215 224 231 239 253 270 285 291 294 296 299 300 301 302 302 303 302 301 302 302 300 298 297 292 286 284 277 279 289 294 289 280 278 282 286 287 290 293 292 291 293 295 291 282 272 269 278
68 67 68 73 76 77 76 76 76 78 81 84 86 89 94 97 101 105 109 114 132 162 183 194 201 211 223 235 248 262 275 285 289 292 294 295 297 298 298 299 299 299 298 298 296 295 294 293 292 289 284 280 276 268 273 288 296 293 285 280 277 278 283 288 287 286 290 293 291 288 285 276 260 267
70 74 77 80 83 83 82 81 82 82 83 86 88 91 92 91 90 92 99 112 138 175 206 228 246 262 274 283 287 287 288 289 291 291 291 291 291 292 292 292 292 293 293 292 290 288 286 284 282 281 280 277 271 267 267 270 271 277 283 284 279 273 277 282 282 282 288 289 290 294 291 277 271 282
74 78 83 86 87 85 82 81 75 66 57 51 44 39 34 23 12 1 342 323 310 298 289 286 287 288 287 287 288 287 288 288 288 287 287 288 288 288 288 289 289 289 289 288 288 287 286 283 280 281 281 279 276 276 277 275 273 276 284 288 284 277 275 277 280 281 280 278 285 294 288 275 280 292
74 73 76 80 76 68 58 49 36 20 7 357 349 339 327 319 316 315 314 312 309 306 304 302 299 296 293 291 290 290 290 290 290 290 292 293 292 290 289 289 288 289 287 285 284 285 285 285 285 284 284 284 285 286 285 283 281 281 281 284 288 292 290 282 276 275 276 277 281 284 279 273 271 272
56 50 42 31 15 355 347 347 339 330 327 324 314 305 299 297 298 300 301 300 300 299 299 297 295 293 292 290 290 290 291 290 290 290 291 292 294 294 294 292 288 285 284 280 278 280 284 287 288 288 288 289 289 283 274 267 269 272 272 273 286 296 298 292 284 279 276 275 273 268 267 271 270 267
14 357 334 323 317 313 311 311 309 307 305 301 295 294 296 298 299 300 298 294 291 287 286 286 285 285 285 285 285 287 287 287 287 288 289 289 290 290 289 286 280 277 277 277 277 281 287 290 289 288 289 291 285 270 265 265 269 276 281 280 279 285 293 297 297 294 291 288 281 270 262 262 262 259
340 320 310 306 306 305 303 302 302 300 298 295 294 296 299 301 303 302 298 294 289 285 282 281 280 280 281 282 284 285 286 286 288 289 289 288 286 282 278 277 278 279 279 278 279 284 291 293 292 290 290 286 280 273 271 274 276 276 277 278 279 281 286 291 294 297 301 302 297 287 279 277 274 270
336 325 319 314 310 309 308 307 306 303 301 299 298 297 298 299 299 297 294 291 288 284 281 279 278 279 280 282 285 287 289 290 292 292 289 287 284 279 275 275 276 279 281 282 284 288 295 297 294 290 285 280 279 278 275 275 278 279 278 279 281 282 284 285 283 283 287 290 289 289 289 290 289 287